{"data":{"norad_id":60282,"epoch":"2026-09-21T14:12:25.127136Z","epoch_age_seconds":87177,"freshness":"FRESH","line1":"1 60282U 24132E   26264.59195749 -.00000118  00000+0  76623-5 0  9998","line2":"2 60282  53.1583 220.3779 0001592  91.6258 268.4927 15.34384204121582","mean_motion":15.34384204,"eccentricity":0.0001592,"inclination_deg":53.1583,"raan_deg":220.3779,"arg_perigee_deg":91.6258,"mean_anomaly_deg":268.4927,"bstar":7.6623e-6,"rev_number":12158,"period_min":93.848724214317,"perigee_km":461.66112041014,"apogee_km":463.83925889132,"semimajor_km":6840.8871896507,"source":"CELESTRAK","updated_at":"2026-09-22T09:00:49.191898Z"}}